Flag Weather past 2 weeks in Ilulissat, Greenland

Now
16 °F

Snow flurries. Passing clouds.


Feels Like: 0 °F
Forecast: 8 / 16 °F
Wind: 16 mph from East

Location: Jacobshavn Lufthavn

Current Time: Nov 27, 2014 at 5:03:33 PM

Latest Report: Nov 27, 2014 at 3:50 PM


Visibility: N/A

Pressure: 29.62 "Hg

Humidity: 57%

Dew point: 3 °F

Location of IlulissatLocation

Historic Weather in Ilulissat — Graph

°F

Ilulissat temperature yesterday

Maximum temperature yesterday: 18 °F (at 12:50 AM)
Minimum temperature yesterday: 12 °F (at 9:50 AM)
Average temperature yesterday: 15 °F

Past Weeks' High & Low Weather Summary

 TemperatureHumidityPressure
High46 °F (Nov 16, 12:50 PM)100% (Nov 15, 10:50 PM)29.92 "Hg (Nov 15, 10:50 PM)
Low12 °F (Nov 26, 9:50 AM)27% (Nov 23, 2:50 AM)28.62 "Hg (Nov 20, 3:50 PM)
Average29 °F52%29.37 "Hg
* Reported Nov 12 3:50 PM — Nov 27 3:50 PM, Ilulissat, Weather by CustomWeather, © 2014

Note: Actual official high and low records may vary slightly from our data, if they occured in-between our weather recording intervals... More about our weather records

Advertising

Ilulissat weather history for previous 24 hours

 ConditionsComfort  
Time TempWeatherWind HumidityBarometerVisibility
3:50 PM
Nov 27
16 °FSnow flurries. Passing clouds.16 mph57%29.62 "HgN/A
2:50 PM18 °FPassing clouds.17 mph53%29.62 "HgN/A
1:50 PM18 °FPassing clouds.16 mph53%29.62 "HgN/A
12:50 PM18 °FScattered clouds.16 mph49%29.62 "HgN/A
11:50 AM16 °FScattered clouds.18 mph53%29.62 "HgN/A
10:50 AM14 °FPartly cloudy.14 mph52%29.62 "HgN/A
9:50 AM12 °FPartly cloudy.15 mph48%29.62 "HgN/A
8:50 AM12 °FPassing clouds.17 mph44%29.62 "HgN/A
7:50 AM12 °FPassing clouds.25 mph44%29.56 "HgN/A
6:50 AM12 °FPassing clouds.28 mph52%29.56 "HgN/A
5:50 AM12 °FCold.26 mph52%29.56 "HgN/A
4:50 AM16 °FOvercast.23 mph41%29.56 "HgN/A
3:50 AM16 °FSnow flurries. Overcast.20 mph45%29.56 "HgN/A
2:50 AM16 °FOvercast.18 mph45%29.56 "HgN/A
1:50 AM14 °FPartly cloudy.20 mph48%29.53 "HgN/A
12:50 AM14 °FPassing clouds.21 mph44%29.53 "HgN/A
11:50 PM
Nov 26
14 °FPassing clouds.14 mph48%29.53 "HgN/A
10:50 PM14 °FSnow flurries. Partly cloudy.15 mph48%29.50 "HgN/A
9:50 PM14 °FSnow flurries. Overcast.16 mph52%29.47 "HgN/A
8:50 PM14 °FSnow flurries. Mostly cloudy.13 mph52%29.47 "HgN/A
7:50 PM16 °FMostly cloudy.8 mph48%29.45 "HgN/A
6:50 PM16 °FOvercast.14 mph41%29.42 "HgN/A
5:50 PM16 °FPassing clouds.13 mph37%29.39 "HgN/A
Weather by CustomWeather, © 2014

See weather overviewHow to use our weather pages